Location: Fond Mahaut
(18.0707°N, 63.0465°W)
Time: 05:31:11
(UTC+00:00)

Lacrosse 5 - Pass Details

Date: 08 December 2019
Orbit: 717 x 722 km, 57.0° (Epoch: 10 January)

Event Time Altitude Azimuth Distance (km) Brightness Sun altitude
Rises 22:33:03 0° 195° (SSW) 3,110 5.7 -13.3°
Reaches altitude 10° 22:35:33 10° 188° (S) 2,191 4.7 -13.9°
Maximum altitude 22:40:15 40° 119° (ESE) 1,052 2.4 -14.9°
Enters shadow 22:42:37 25° 67° (ENE) 1,432 2.8 -15.5°
